Regional Weather Roundup
Issued by NWS

Home | Current Version | Previous Version | Text Only | Print | Product List | Glossary Off
Versions: 1 2 3 4 5 6 7 8 9 10 11 12 13 14 15 16 17 18 19 20 21 22 23 24 25 26 27 28 29 30 31 32 33 34 35 36 37 38 39 40 41 42 43 44 45 46 47 48 49 50

000
ASUS43 KLOT 042110
RWRIL

ILLINOIS REGIONAL WEATHER ROUNDUP
NATIONAL WEATHER SERVICE CHICAGO/ROMEOVILLE IL
300 PM CST WED MAR 04 2015

NOTE: "FAIR" INDICATES FEW OR NO CLOUDS BELOW 12,000 FEET WITH NO
SIGNIFICANT WEATHER AND/OR OBSTRUCTIONS TO VISIBILITY.

* THESE STATIONS ARE NOT UNDER NWS QUALITY CONTROL. THEY ALSO MAY NOT
  REPORT WEATHER SUCH AS PRECIPITATION OR FOG.

ILZ001-002-007-009-015-016-024-042200-
NORTHWEST ILLINOIS

CITY           SKY/WX    TMP DP  RH WIND       PRES   REMARKS
MOLINE         SUNNY     18   2  49 W14       30.28R WCI   4
STERLING*      SUNNY     21   9  58 NW14      30.23R WCI   8
SAVANNA*       SUNNY     20  -2  37 W13G21    30.24S WCI   7
$$

ILZ003-004-008-010-011-017-018-042200-
NORTH CENTRAL ILLINOIS

CITY           SKY/WX    TMP DP  RH WIND       PRES   REMARKS
ROCKFORD       MOSUNNY   18   1  47 NW15      30.20R WCI   4
FREEPORT*      SUNNY     15   0  50 NW16      30.21S WCI   0
ROCHELLE*      SUNNY     17   4  55 W15       30.21R WCI   3
DE KALB*       SUNNY     16   4  59 W15       30.19R WCI   1
PERU*          SUNNY     21   9  58 NW16      30.23R WCI   7
$$

ILZ005-006-012>014-019>023-042200-
NORTHEAST ILLINOIS

CITY           SKY/WX    TMP DP  RH WIND       PRES   REMARKS
CHICAGO-OHARE  MOSUNNY   21   0  39 NW20      30.17R WCI   6
CHICAGO-MIDWAY PTSUNNY   25   6  44 NW14G22   30.16R WCI  13
AURORA         SUNNY     19   6  57 NW18      30.20R WCI   4
LANSING*       MOSUNNY   22   2  41 NW14G22   30.16R WCI  10
JOLIET*        SUNNY     20   6  54 NW13G20   30.20R WCI   7
WAUKEGAN       SUNNY     20  -3  36 W14G20    30.16R WCI   7
DUPAGE AIRPORT SUNNY     20   2  45 NW12      30.17R WCI   8
KANKAKEE*      PTSUNNY   20   8  59 NW12G18   30.18S WCI   8
WHEELING       MOSUNNY   21  -1  38 NW16      30.20R WCI   7
MORRIS*        SUNNY     19   8  62 NW14      30.20R WCI   5
ROMEOVILLE*    SUNNY     21   6  54 NW15      30.18R WCI   7
NORTHERLY ISL    N/A     23   0  36 NW16        N/A  WCI  10
$$

LMZ740>746-042200-
SOUTHERN LAKE MICHIGAN

STATION/POSITION SKY/WX   TEMP    WIND        PRES    VSBY  WAVE
                          AIR SEA DIR/SP/G                  HT/PER
                          (F)     (DEG/KT/KT) (MB)    (MI)  (FT/S)
WAUKEGAN HARBOR            20                   N/A
HARRISON CRIB              20     310/ 19/ 22   N/A
BURNHAM HARBOR             22     300/ 14/ 16   N/A
CALUMET HARBOR             22     290/  8/ 11 1020.2R
MICHIGAN CITY              21     300/ 14/ 20   N/A
$$

ILZ025>027-034>036-040-047-049-050-058-095>099-042200-
WEST-CENTRAL ILLINOIS

CITY           SKY/WX    TMP DP  RH WIND       PRES   REMARKS
QUINCY         PTSUNNY   22   4  46 N10       30.26R WCI  11
GALESBURG*     SUNNY     19   4  52 NW14      30.25S WCI   5
MACOMB*        MOSUNNY   19   8  61 NW14      30.30R WCI   6
JACKSONVILLE*  PTSUNNY   23   7  49 N14       30.25R WCI  11
PITTSFIELD*    PTSUNNY   22   5  47 NW15      30.28R WCI   9
$$

ILZ028>032-037-038-041>044-048-051>054-059>061-042200-
CENTRAL ILLINOIS

CITY           SKY/WX    TMP DP  RH WIND       PRES   REMARKS
PONTIAC        MOSUNNY   19  11  69 NW16      30.21S WCI   5
BLOOMINGTON    PTSUNNY   19   6  57 N17       30.20R WCI   4
DECATUR        CLOUDY    20   6  55 N20       30.22R WCI   4
PEORIA         MOSUNNY   22   3  44 NW15      30.26R WCI   9
LACON*         SUNNY     19   5  54 NW10G18   30.25R WCI   7
LINCOLN*       CLOUDY    24   7  48 NW9G17    30.26R WCI  14
SPRINGFIELD    CLOUDY    22   5  48 N15       30.24R WCI   9
TAYLORVILLE    CLOUDY    19   9  63 N16       30.24R WCI   5
$$

ILZ033-039-045-046-055>057-062-063-042200-
EAST-CENTRAL ILLINOIS

CITY           SKY/WX    TMP DP  RH WIND       PRES   REMARKS
CHAMPAIGN      CLOUDY    18   8  65 NW17      30.19R WCI   3
DANVILLE*      CLOUDY    18   9  69 NW18G25   30.15R WCI   2
RANTOUL*       CLOUDY    20  10  64 NW17G23   30.19R WCI   5
MATTOON        CLOUDY    19   9  65 NW17      30.18R WCI   4
PARIS*         CLOUDY    19  11  73 NW14G23   30.18R WCI   5
$$

ILZ079-100>102-042200-
SOUTHWEST ILLINOIS

CITY           SKY/WX    TMP DP  RH WIND       PRES   REMARKS
ALTON          CLOUDY    21   1  42 N10G21    30.26R WCI  10
BELLEVILLE     CLOUDY    22  10  59 NW16      30.24R WCI   8
CAHOKIA*       CLOUDY    23   7  50 N12       30.25R WCI  12
SPARTA*        LGT SNOW  19  15  87 N9        30.23R WCI   8
$$

ILZ064>066-069>071-074>076-080>082-084>086-088>090-092>094-042200-
SOUTH-CENTRAL ILLINOIS

CITY           SKY/WX    TMP DP  RH WIND       PRES   REMARKS
CARBONDALE     FOG       19  15  84 N15G22    30.17S VSB 3/4 WCI   5
CAIRO*         FLURRIES  27  27 100 N10G18    30.15R WCI  17
EFFINGHAM*     LGT SNOW  19  11  69 NW14      30.19F WCI   6
MARION         LGT SNOW  21  19  93 N12G17    30.17F VSB 1   WCI   9
MT. VERNON     CLOUDY    19  12  73 CALM      30.19R VSB 1/2
CENTRALIA*     SNOW      19  15  84 N14       30.21R VSB 1/2 WCI   5
SALEM*         LGT SNOW  21  16  83 NW14      30.20R VSB 3/4 WCI   8
METROPOLIS*    MIX PCPN  26  25  96 N13G21    30.12R WCI  14
$$

ILZ067-068-072-073-078-083-087-091-042200-
SOUTHEAST ILLINOIS

CITY           SKY/WX    TMP DP  RH WIND       PRES   REMARKS
LAWRENCEVILLE  HVY SNOW  21  17  84 N15       30.16R WCI   8
FLORA*         LGT SNOW  20  16  87 N14       30.18S VSB 3/4 WCI   6
FAIRFIELD*     SNOW      20  17  88 NW10      30.17S VSB 1/2 WCI   8
HARRISBURG*    LGT SNOW  22  20  94 N13G18    30.16S WCI  10
ROBINSON*      CLOUDY    21  12  70 NW12      30.18R WCI   9
CARMI*         LGT SNOW  23  22  94 CALM      30.15S VSB 3/4
$$

ABBREVIATIONS USED IN REMARKS
   TC - TEMPERATURE IN CELSIUS
  WCI - WIND CHILL INDEX
   HX - HEAT INDEX
  VSB - VISIBILITY
$$



USA.gov is the U.S. government's official web portal to all federal, state and local government web resources and services.